| time (UTC) | temp F | wind direction | speed MPH | gust MPH | rain 1hr in | rain 24hr in | rain mn in | humidity % | barometer mb |
| 20260503001511 | 53 | 295 | 2.0 | 8.0 | 0.00 | 0.03 | 0.03 | 40 | 1010.6 |
| 20260503000014 | 53 | 305 | 3.0 | 8.0 | 0.00 | 0.03 | 0.03 | 41 | 1010.5 |
| 20260502234509 | 53 | 305 | 2.0 | 4.0 | 0.00 | 0.03 | 0.03 | 41 | 1010.5 |
| 20260502233008 | 54 | 307 | 1.0 | 5.0 | 0.00 | 0.03 | 0.03 | 41 | 1010.3 |
| 20260502231507 | 54 | 286 | 2.0 | 4.0 | 0.00 | 0.03 | 0.03 | 40 | 1010.2 |
| 20260502230006 | 55 | 304 | 1.0 | 4.0 | 0.00 | 0.03 | 0.03 | 40 | 1010.1 |
| 20260502224506 | 56 | 325 | 1.0 | 8.0 | 0.00 | 0.03 | 0.03 | 40 | 1009.9 |
| 20260502223017 | 56 | 299 | 2.0 | 8.0 | 0.00 | 0.03 | 0.03 | 39 | 1009.9 |
| 20260502221505 | 56 | 307 | 2.0 | 5.0 | 0.00 | 0.03 | 0.03 | 38 | 1009.8 |
| 20260502220005 | 58 | 307 | 2.0 | 8.0 | 0.00 | 0.03 | 0.03 | 36 | 1009.6 |
| 20260502214505 | 58 | 334 | 2.0 | 8.0 | 0.00 | 0.03 | 0.03 | 36 | 1009.5 |
| 20260502213004 | 58 | 329 | 2.0 | 5.0 | 0.00 | 0.03 | 0.03 | 38 | 1009.4 |
| 20260502211504 | 58 | 300 | 0.0 | 7.0 | 0.00 | 0.03 | 0.03 | 38 | 1009.3 |
| 20260502210002 | 59 | 261 | 1.0 | 6.0 | 0.00 | 0.03 | 0.03 | 35 | 1009.3 |
| 20260502204601 | 58 | 280 | 1.0 | 6.0 | 0.00 | 0.03 | 0.03 | 38 | 1009.2 |
| 20260502203059 | 58 | 324 | 2.0 | 6.0 | 0.00 | 0.03 | 0.03 | 37 | 1009.4 |
| 20260502201557 | 58 | 293 | 0.0 | 6.0 | 0.00 | 0.03 | 0.03 | 38 | 1009.5 |
| 20260502200124 | 58 | 301 | 1.0 | 6.0 | 0.00 | 0.03 | 0.03 | 40 | 1009.6 |
| 20260502194555 | 59 | 214 | 3.0 | 8.0 | 0.00 | 0.03 | 0.03 | 37 | 1009.8 |
| 20260502193053 | 59 | 305 | 2.0 | 9.0 | 0.00 | 0.03 | 0.03 | 41 | 1010.1 |
| 20260502191558 | 58 | 314 | 1.0 | 4.0 | 0.00 | 0.03 | 0.03 | 40 | 1010.4 |
| 20260502190050 | 58 | 329 | 3.0 | 6.0 | 0.00 | 0.03 | 0.03 | 41 | 1010.5 |
| 20260502184547 | 58 | 300 | 3.0 | 5.0 | 0.00 | 0.03 | 0.03 | 41 | 1010.5 |
| 20260502183049 | 58 | 250 | 2.0 | 5.0 | 0.00 | 0.03 | 0.03 | 39 | 1010.5 |
| 20260502181544 | 58 | 283 | 2.0 | 5.0 | 0.00 | 0.03 | 0.03 | 39 | 1010.6 |
| 20260502163045 | 55 | 57 | 1.0 | 5.0 | 0.00 | 0.03 | 0.03 | 55 | 1011.3 |
| 20260502161532 | 56 | 50 | 2.0 | 4.0 | 0.00 | 0.03 | 0.03 | 54 | 1011.4 |
| 20260502151544 | 51 | 295 | 1.0 | 8.0 | 0.00 | 0.03 | 0.03 | 68 | 1011.8 |
| 20260502123001 | 49 | 311 | 1.0 | 4.0 | 0.00 | 0.03 | 0.03 | 87 | 1011.7 |
| 20260502121557 | 49 | 309 | 3.0 | 9.0 | 0.00 | 0.03 | 0.03 | 87 | 1011.6 |
| 20260502114550 | 49 | 245 | 0.0 | 3.0 | 0.00 | 0.03 | 0.03 | 93 | 1011.9 |
| 20260502113052 | 48 | 321 | 0.0 | 0.0 | 0.00 | 0.03 | 0.03 | 94 | 1012.1 |
| 20260502111548 | 47 | 321 | 0.0 | 0.0 | 0.00 | 0.03 | 0.03 | 94 | 1011.9 |
| 20260502110049 | 46 | 321 | 0.0 | 0.0 | 0.00 | 0.03 | 0.03 | 95 | 1011.4 |
| 20260502104542 | 46 | 321 | 0.0 | 0.0 | 0.00 | 0.03 | 0.03 | 94 | 1011.3 |
| 20260502103041 | 46 | 321 | 0.0 | 0.0 | 0.00 | 0.03 | 0.03 | 94 | 1011.1 |
| 20260502101543 | 46 | 321 | 0.0 | 0.0 | 0.01 | 0.03 | 0.03 | 93 | 1011.2 |
| 20260502091534 | 48 | 321 | 0.0 | 0.0 | 0.01 | 0.02 | 0.02 | 91 | 1011.4 |
| 20260502071525 | 48 | 180 | 0.0 | 4.0 | 0.00 | 0.00 | 0.00 | 91 | 1011.0 |
| 20260502070038 | 48 | 87 | 0.0 | 3.0 | 0.00 | 0.00 | 0.00 | 93 | 1011.2 |
| 20260502064523 | 48 | 87 | 0.0 | 2.0 | 0.00 | 0.00 | 0.00 | 93 | 1011.1 |
| 20260502063034 | 48 | 87 | 0.0 | 2.0 | 0.00 | 0.00 | 0.00 | 93 | 1010.9 |
| 20260502061519 | 48 | 87 | 0.0 | 0.0 | 0.00 | 0.00 | 0.00 | 92 | 1011.2 |
| 20260502060019 | 48 | 87 | 0.0 | 0.0 | 0.00 | 0.00 | 0.00 | 92 | 1011.2 |
| 20260502054530 | 48 | 87 | 0.0 | 2.0 | 0.00 | 0.00 | 0.00 | 92 | 1011.2 |
| 20260502053016 | 48 | 87 | 0.0 | 0.0 | 0.00 | 0.00 | 0.00 | 91 | 1011.2 |
| 20260502051515 | 48 | 87 | 0.0 | 0.0 | 0.00 | 0.00 | 0.00 | 90 | 1011.4 |
| 20260502050022 | 48 | 87 | 0.0 | 1.0 | 0.00 | 0.00 | 0.00 | 89 | 1011.2 |
| 20260502044513 | 48 | 87 | 0.0 | 0.0 | 0.00 | 0.00 | 0.00 | 88 | 1011.4 |
| 20260502043016 | 48 | 87 | 0.0 | 0.0 | 0.00 | 0.00 | 0.00 | 88 | 1011.3 |
| 20260502041510 | 49 | 87 | 0.0 | 0.0 | 0.00 | 0.00 | 0.00 | 87 | 1011.3 |
| 20260502040010 | 49 | 87 | 0.0 | 0.0 | 0.00 | 0.00 | 0.00 | 87 | 1011.3 |
| 20260502034512 | 49 | 87 | 0.0 | 0.0 | 0.00 | 0.00 | 0.00 | 86 | 1011.3 |
| 20260502033007 | 49 | 87 | 0.0 | 1.0 | 0.00 | 0.00 | 0.00 | 85 | 1011.2 |
| 20260502031506 | 49 | 87 | 0.0 | 1.0 | 0.00 | 0.00 | 0.00 | 84 | 1011.2 |
| 20260502030006 | 49 | 87 | 0.0 | 0.0 | 0.00 | 0.00 | 0.00 | 83 | 1011.6 |
| 20260502024505 | 50 | 87 | 0.0 | 0.0 | 0.00 | 0.00 | 0.00 | 82 | 1011.5 |
| 20260502023004 | 50 | 87 | 0.0 | 0.0 | 0.00 | 0.00 | 0.00 | 80 | 1011.7 |
| 20260502021503 | 50 | 87 | 0.0 | 0.0 | 0.00 | 0.00 | 0.00 | 80 | 1011.5 |
| 20260502020002 | 50 | 87 | 0.0 | 0.0 | 0.00 | 0.00 | 0.00 | 78 | 1011.6 |
| 20260502014501 | 51 | 87 | 0.0 | 0.0 | 0.00 | 0.00 | 0.00 | 77 | 1011.3 |
| 20260502013002 | 52 | 87 | 0.0 | 2.0 | 0.00 | 0.00 | 0.00 | 75 | 1011.2 |
| 20260502011603 | 53 | 87 | 0.0 | 0.0 | 0.00 | 0.00 | 0.00 | 71 | 1010.9 |
| 20260502010100 | 55 | 87 | 0.0 | 0.0 | 0.00 | 0.00 | 0.00 | 70 | 1011.0 |
| 20260502004600 | 56 | 87 | 0.0 | 0.0 | 0.00 | 0.00 | 0.00 | 65 | 1011.0 |
| 20260502003059 | 56 | 87 | 0.0 | 0.0 | 0.00 | 0.00 | 0.00 | 66 | 1011.0 |
| 20260502001636 | 57 | 87 | 0.0 | 2.0 | 0.00 | 0.00 | 0.00 | 65 | 1010.8 |